Flag for Switzerland Weather past 2 weeks in La-Chaux-de-Fonds, Neuchâtel, Switzerland

Now
61 °F

Partly sunny.


Feels Like: 61 °F
Forecast: 43 / 51 °F
Wind: 13 mph from Southwest

Location: Les Eplatures

Current Time: Sep 21, 2014 at 1:09:38 PM

Latest Report: Sep 21, 2014 at 12:20 PM


Visibility: N/A

Pressure: 30.09 "Hg

Humidity: 83%

Dew point: 55 °F

Location of La-Chaux-de-FondsLocation

Historic Weather in La-Chaux-de-Fonds — Graph

°F

La-Chaux-de-Fonds temperature yesterday

Maximum temperature yesterday: 66 °F (at 1:50 PM)
Minimum temperature yesterday: 54 °F (at 8:20 AM)
Average temperature yesterday: 58 °F

Past Weeks' High & Low Weather Summary

 TemperatureHumidityPressure
High72 °F (Sep 8, 2:20 PM)100% (Sep 6, 10:20 PM)30.18 "Hg (Sep 6, 10:20 PM)
Low41 °F (Sep 12, 6:20 AM)46% (Sep 17, 3:50 PM)29.95 "Hg (Sep 11, 5:50 AM)
Average57 °F88%30.05 "Hg
* Reported Sep 6 11:20 AM — Sep 21 11:20 AM, La-Chaux-de-Fonds, Weather by CustomWeather, © 2014

Note: Actual official high and low records may vary slightly from our data, if they occured in-between our weather recording intervals... More about our weather records

Advertising

La-Chaux-de-Fonds weather history for previous 24 hours

 ConditionsComfort  
Time TempWeatherWind HumidityBarometerVisibility
11:20 AM
Sep 21
61 °FPartly sunny.10 mph83%30.09 "HgN/A
10:50 AM59 °FPartly sunny.12 mph88%30.12 "HgN/A
10:20 AM59 °FPassing clouds.7 mph88%30.09 "HgN/A
9:50 AM57 °FScattered clouds.7 mph100%30.12 "HgN/A
9:20 AM57 °FPartly sunny.6 mph100%30.12 "HgN/A
8:50 AM54 °FClear.2 mph100%30.09 "Hg10 mi
8:20 AM52 °FClear.1 mph100%30.12 "Hg10 mi
7:50 AM50 °FClear.1 mph100%30.12 "Hg10 mi
7:20 AM50 °FClear.1 mph100%30.12 "Hg10 mi
6:50 AM52 °FClear.2 mph100%30.12 "HgN/A
6:20 AM52 °FLight rain. Passing clouds.3 mph100%30.09 "HgN/A
5:50 AM50 °FFog.3 mph100%30.12 "Hg0 mi
5:20 AM50 °FCool.2 mph100%30.09 "HgN/A
4:50 AM52 °FLight rain. Passing clouds.5 mph100%30.09 "HgN/A
4:20 AM54 °FThunderstorms. Passing clouds.1 mph100%30.12 "Hg3 mi
3:50 AM55 °FThunderstorms. Partly cloudy.3 mph100%30.12 "Hg5 mi
3:20 AM55 °FLight rain. Partly cloudy.1 mph100%30.12 "HgN/A
2:50 AM54 °FMostly cloudy.2 mph100%30.12 "HgN/A
2:20 AM54 °FMostly cloudy.3 mph100%30.12 "HgN/A
1:50 AM54 °FClear.1 mph100%30.12 "Hg10 mi
1:20 AM54 °FClear.1 mph100%30.12 "Hg10 mi
12:20 AM54 °FClear.1 mph100%30.15 "Hg10 mi
11:50 PM
Sep 20
54 °FPassing clouds.1 mph94%30.12 "HgN/A
11:20 PM55 °FClear.1 mph100%30.12 "Hg10 mi
10:20 PM55 °FClear.1 mph94%30.12 "HgN/A
9:50 PM55 °FClear.1 mph100%30.12 "HgN/A
9:20 PM55 °FSunny.1 mph100%30.12 "Hg10 mi
8:50 PM57 °FSunny.2 mph94%30.12 "Hg10 mi
8:20 PM57 °FSunny.1 mph94%30.12 "Hg10 mi
7:50 PM59 °FCool.2 mph94%30.12 "HgN/A
3:20 PM66 °FScattered clouds.8 mph64%30.09 "HgN/A
2:50 PM66 °FScattered clouds.10 mph64%30.09 "HgN/A
2:20 PM66 °FScattered clouds.10 mph68%30.12 "HgN/A
1:50 PM66 °FScattered clouds.7 mph68%30.09 "HgN/A
1:20 PM64 °FScattered clouds.7 mph73%30.12 "HgN/A
Weather by CustomWeather, © 2014

See weather overviewHow to use our weather pages